A7GAB OTBD-OTBD

Flight info

Callsign A7GAB
Flight time 1h 10m
Altitude 1500
Route DERTI RESAR DCT DERTI DCT DIA
Aircraft H160/L-SDFGILOVY/S

Departure

Time 2026-04-18 13:00
Airport Doha International Airport (OTBD)

Arrival

Time 2026-04-18 14:11
Airport Doha International Airport (OTBD)
Time Latitude Longitude Altitude Speed Heading
2026-04-18 12:51 25.27456 51.56305 27 ft 0 kts 338°
2026-04-18 12:57 25.27457 51.56299 26 ft 2 kts 272°
2026-04-18 12:58 25.27463 51.56263 29 ft 6 kts 266°
2026-04-18 12:58 25.27443 51.56204 27 ft 12 kts 248°
2026-04-18 12:58 25.27403 51.56094 24 ft 12 kts 248°
2026-04-18 12:58 25.27399 51.56085 23 ft 0 kts 250°
2026-04-18 12:59 25.27399 51.56084 23 ft 1 kts 250°
2026-04-18 12:59 25.27374 51.56009 22 ft 22 kts 248°
2026-04-18 12:59 25.27284 51.55986 40 ft 18 kts 159°
2026-04-18 12:59 25.26981 51.56131 160 ft 76 kts 156°
2026-04-18 13:00 25.26561 51.56484 402 ft 71 kts 105°
2026-04-18 13:00 25.26771 51.57021 479 ft 88 kts 50°
2026-04-18 13:00 25.27394 51.57330 592 ft 116 kts 12°
2026-04-18 13:00 25.28266 51.57190 728 ft 132 kts 353°
2026-04-18 13:01 25.29120 51.57444 808 ft 138 kts 44°
2026-04-18 13:01 25.29637 51.58370 812 ft 148 kts 66°
2026-04-18 13:01 25.30105 51.59411 867 ft 154 kts 66°
2026-04-18 13:01 25.30567 51.60404 1161 ft 139 kts 60°
2026-04-18 13:02 25.31089 51.61362 1163 ft 155 kts 56°
2026-04-18 13:02 25.31644 51.62364 1301 ft 150 kts 57°
2026-04-18 13:02 25.32181 51.63344 1392 ft 155 kts 57°
2026-04-18 13:02 25.32780 51.64386 1360 ft 167 kts 59°
2026-04-18 13:03 25.33206 51.65558 1437 ft 164 kts 74°
2026-04-18 13:03 25.33533 51.68085 1462 ft 167 kts 82°
2026-04-18 13:03 25.33653 51.69348 1447 ft 167 kts 81°
2026-04-18 13:04 25.33774 51.70637 1461 ft 167 kts 83°
2026-04-18 13:04 25.33896 51.71911 1461 ft 166 kts 83°
2026-04-18 13:04 25.34031 51.73178 1459 ft 166 kts 82°
2026-04-18 13:04 25.34164 51.74429 1453 ft 164 kts 83°
2026-04-18 13:05 25.34308 51.75682 1464 ft 166 kts 83°
2026-04-18 13:05 25.34451 51.76939 1454 ft 166 kts 81°
2026-04-18 13:05 25.34587 51.78203 1455 ft 166 kts 83°
2026-04-18 13:05 25.34733 51.79472 1469 ft 163 kts 82°
2026-04-18 13:06 25.34868 51.80716 1451 ft 166 kts 83°
2026-04-18 13:06 25.35063 51.81986 1460 ft 168 kts 73°
2026-04-18 13:06 25.35318 51.82788 1464 ft 167 kts 66°
2026-04-18 13:06 25.35793 51.83952 1466 ft 164 kts 63°
2026-04-18 13:07 25.36293 51.85088 1457 ft 165 kts 62°
2026-04-18 13:07 25.36796 51.86223 1459 ft 163 kts 63°
2026-04-18 13:07 25.37305 51.87356 1454 ft 166 kts 62°
2026-04-18 13:07 25.37811 51.88499 1465 ft 164 kts 63°
2026-04-18 13:08 25.38308 51.89629 1459 ft 163 kts 62°
2026-04-18 13:08 25.38810 51.90766 1465 ft 165 kts 62°
2026-04-18 13:08 25.39310 51.91906 1464 ft 164 kts 62°
2026-04-18 13:08 25.39811 51.93048 1461 ft 166 kts 62°
2026-04-18 13:09 25.40309 51.94179 1461 ft 166 kts 62°
2026-04-18 13:09 25.40804 51.95331 1463 ft 165 kts 63°
2026-04-18 13:09 25.41298 51.96471 1460 ft 164 kts 63°
2026-04-18 13:09 25.41799 51.97621 1464 ft 166 kts 62°
2026-04-18 13:10 25.42294 51.98770 1460 ft 165 kts 62°
2026-04-18 13:10 25.42789 51.99916 1461 ft 164 kts 62°
2026-04-18 13:10 25.43285 52.01060 1460 ft 166 kts 62°
2026-04-18 13:10 25.43787 52.02202 1465 ft 164 kts 62°
2026-04-18 13:11 25.44283 52.03343 1463 ft 165 kts 62°
2026-04-18 13:11 25.44786 52.04486 1463 ft 165 kts 62°
2026-04-18 13:11 25.45292 52.05639 1468 ft 167 kts 62°
2026-04-18 13:11 25.45787 52.06800 1466 ft 167 kts 62°
2026-04-18 13:12 25.46282 52.07967 1467 ft 166 kts 62°
2026-04-18 13:12 25.46772 52.09124 1464 ft 166 kts 62°
2026-04-18 13:12 25.47262 52.10281 1465 ft 166 kts 62°
2026-04-18 13:12 25.47749 52.11442 1464 ft 166 kts 62°
2026-04-18 13:13 25.48230 52.12601 1463 ft 166 kts 63°
2026-04-18 13:13 25.48715 52.13751 1464 ft 167 kts 62°
2026-04-18 13:13 25.49208 52.14916 1464 ft 167 kts 62°
2026-04-18 13:13 25.49691 52.16074 1461 ft 165 kts 62°
2026-04-18 13:14 25.50180 52.17233 1460 ft 168 kts 62°
2026-04-18 13:14 25.50673 52.18404 1465 ft 167 kts 62°
2026-04-18 13:14 25.51159 52.19565 1462 ft 166 kts 62°
2026-04-18 13:14 25.51653 52.20731 1465 ft 167 kts 62°
2026-04-18 13:15 25.52135 52.21890 1465 ft 165 kts 62°
2026-04-18 13:15 25.52619 52.23052 1463 ft 166 kts 62°
2026-04-18 13:15 25.53109 52.24204 1463 ft 165 kts 62°
2026-04-18 13:15 25.53598 52.25358 1461 ft 166 kts 62°
2026-04-18 13:16 25.54086 52.26518 1462 ft 166 kts 62°
2026-04-18 13:16 25.54576 52.27673 1461 ft 165 kts 62°
2026-04-18 13:16 25.55060 52.28809 1328 ft 167 kts 62°
2026-04-18 13:16 25.55547 52.29976 1212 ft 166 kts 63°
2026-04-18 13:17 25.56040 52.31153 1081 ft 167 kts 63°
2026-04-18 13:17 25.56602 52.32280 969 ft 166 kts 57°
2026-04-18 13:17 25.57183 52.33354 850 ft 165 kts 57°
2026-04-18 13:17 25.57786 52.34430 700 ft 165 kts 57°
2026-04-18 13:18 25.58402 52.35498 611 ft 163 kts 57°
2026-04-18 13:18 25.59013 52.36544 549 ft 162 kts 56°
2026-04-18 13:18 25.59626 52.37600 533 ft 165 kts 56°
2026-04-18 13:18 25.60308 52.38606 527 ft 161 kts 49°
2026-04-18 13:19 25.61047 52.39565 523 ft 163 kts 49°
2026-04-18 13:19 25.61795 52.40503 515 ft 163 kts 47°
2026-04-18 13:19 25.62497 52.41394 538 ft 141 kts 48°
2026-04-18 13:19 25.63083 52.42163 528 ft 121 kts 48°
2026-04-18 13:20 25.63673 52.42722 520 ft 104 kts 32°
2026-04-18 13:20 25.64268 52.43060 507 ft 90 kts
2026-04-18 13:20 25.64850 52.43027 510 ft 78 kts 343°
2026-04-18 13:20 25.65320 52.42840 511 ft 66 kts 336°
2026-04-18 13:21 25.65712 52.42671 511 ft 55 kts 336°
2026-04-18 13:21 25.66028 52.42536 510 ft 42 kts 336°
2026-04-18 13:21 25.66269 52.42430 492 ft 35 kts 336°
2026-04-18 13:21 25.66477 52.42310 430 ft 32 kts 333°
2026-04-18 13:22 25.66675 52.42186 390 ft 36 kts 334°
2026-04-18 13:22 25.66905 52.42016 373 ft 43 kts 329°
2026-04-18 13:22 25.67179 52.41833 321 ft 54 kts 331°
2026-04-18 13:22 25.67569 52.41597 162 ft 64 kts 333°
2026-04-18 13:23 25.67758 52.41475 162 ft 10 kts 131°
2026-04-18 13:23 25.67732 52.41545 259 ft 21 kts 199°
2026-04-18 13:23 25.67621 52.41528 276 ft 9 kts 241°
2026-04-18 13:23 25.67601 52.41526 140 ft 4 kts 281°
2026-04-18 13:24 25.67580 52.41524 62 ft 2 kts 294°
2026-04-18 13:24 25.67583 52.41526 37 ft 1 kts 284°
2026-04-18 13:24 25.67584 52.41527 33 ft 0 kts 282°
2026-04-18 13:28 25.67588 52.41534 33 ft 3 kts 70°
2026-04-18 13:28 25.67586 52.41564 36 ft 5 kts 123°
2026-04-18 13:28 25.67496 52.41605 96 ft 27 kts 176°
2026-04-18 13:29 25.67229 52.41731 294 ft 55 kts 168°
2026-04-18 13:29 25.66760 52.41785 501 ft 81 kts 188°
2026-04-18 13:29 25.66109 52.41713 648 ft 106 kts 192°
2026-04-18 13:29 25.65307 52.41574 705 ft 126 kts 195°
2026-04-18 13:30 25.64387 52.41391 723 ft 140 kts 198°
2026-04-18 13:30 25.63386 52.41188 735 ft 150 kts 190°
2026-04-18 13:30 25.62369 52.41085 916 ft 146 kts 191°
2026-04-18 13:30 25.61344 52.40892 902 ft 152 kts 193°
2026-04-18 13:31 25.60298 52.40612 875 ft 155 kts 200°
2026-04-18 13:31 25.59248 52.40312 930 ft 154 kts 201°
2026-04-18 13:31 25.58229 52.40027 1096 ft 146 kts 195°
2026-04-18 13:31 25.57255 52.39920 1322 ft 139 kts 189°
2026-04-18 13:32 25.56247 52.39824 1281 ft 151 kts 192°
2026-04-18 13:32 25.55182 52.39676 1269 ft 157 kts 193°
2026-04-18 13:32 25.54102 52.39496 1170 ft 162 kts 191°
2026-04-18 13:32 25.52962 52.39506 1110 ft 162 kts 180°
2026-04-18 13:33 25.51861 52.39567 1120 ft 156 kts 184°
2026-04-18 13:33 25.50787 52.39544 1020 ft 153 kts 188°
2026-04-18 13:33 25.49729 52.39446 890 ft 154 kts 191°
2026-04-18 13:33 25.48659 52.39324 754 ft 154 kts 191°
2026-04-18 13:34 25.47603 52.39268 583 ft 151 kts 185°
2026-04-18 13:34 25.46672 52.39026 416 ft 108 kts 253°
2026-04-18 13:34 25.46892 52.38458 410 ft 91 kts 337°
2026-04-18 13:34 25.47396 52.38468 549 ft 46 kts
2026-04-18 13:35 25.47515 52.38639 310 ft 40 kts 107°
2026-04-18 13:35 25.47238 52.38799 492 ft 54 kts 232°
2026-04-18 13:35 25.47128 52.38494 592 ft 45 kts 332°
2026-04-18 13:35 25.47316 52.38435 658 ft 14 kts 344°
2026-04-18 13:36 25.47380 52.38424 524 ft 23 kts 344°
2026-04-18 13:36 25.47452 52.38363 460 ft 3 kts 344°
2026-04-18 13:36 25.47468 52.38406 211 ft 9 kts 349°
2026-04-18 13:36 25.47402 52.38414 437 ft 21 kts 344°
2026-04-18 13:37 25.47376 52.38409 241 ft 5 kts 357°
2026-04-18 13:37 25.47418 52.38402 193 ft 5 kts 354°
2026-04-18 13:37 25.47453 52.38391 148 ft 3 kts 354°
2026-04-18 13:37 25.47456 52.38389 133 ft 0 kts
2026-04-18 13:43 25.47457 52.38390 140 ft 2 kts
2026-04-18 13:44 25.47487 52.38392 239 ft 7 kts
2026-04-18 13:44 25.47558 52.38382 392 ft 18 kts 308°
2026-04-18 13:44 25.47660 52.38051 606 ft 75 kts 276°
2026-04-18 13:44 25.47569 52.37351 678 ft 117 kts 259°
2026-04-18 13:45 25.47344 52.36329 472 ft 141 kts 263°
2026-04-18 13:45 25.47311 52.35253 665 ft 146 kts 275°
2026-04-18 13:45 25.47392 52.34060 673 ft 160 kts 278°
2026-04-18 13:45 25.47486 52.32834 859 ft 157 kts 279°
2026-04-18 13:46 25.47565 52.31625 1037 ft 159 kts 278°
2026-04-18 13:46 25.47631 52.30406 1227 ft 159 kts 278°
2026-04-18 13:46 25.47685 52.29201 1379 ft 156 kts 279°
2026-04-18 13:46 25.47739 52.27997 1535 ft 155 kts 278°
2026-04-18 13:47 25.47786 52.26892 1765 ft 134 kts 279°
2026-04-18 13:47 25.47816 52.25845 1939 ft 139 kts 278°
2026-04-18 13:47 25.47843 52.24788 2137 ft 136 kts 278°
2026-04-18 13:47 25.47875 52.23745 2327 ft 135 kts 279°
2026-04-18 13:48 25.47908 52.22722 2430 ft 134 kts 279°
2026-04-18 13:48 25.47942 52.21690 2476 ft 134 kts 279°
2026-04-18 13:48 25.47978 52.20659 2491 ft 134 kts 279°
2026-04-18 13:48 25.48015 52.19625 2501 ft 134 kts 279°
2026-04-18 13:49 25.48052 52.18588 2507 ft 134 kts 279°
2026-04-18 13:49 25.48090 52.17559 2510 ft 134 kts 279°
2026-04-18 13:49 25.48128 52.16529 2511 ft 134 kts 279°
2026-04-18 13:49 25.48166 52.15500 2510 ft 135 kts 279°
2026-04-18 13:50 25.48204 52.14457 2512 ft 135 kts 279°
2026-04-18 13:50 25.48241 52.13415 2514 ft 135 kts 279°
2026-04-18 13:50 25.48271 52.12377 2514 ft 135 kts 279°
2026-04-18 13:50 25.48301 52.11345 2515 ft 134 kts 279°
2026-04-18 13:51 25.48332 52.10314 2513 ft 134 kts 279°
2026-04-18 13:51 25.48362 52.09280 2507 ft 134 kts 278°
2026-04-18 13:51 25.48392 52.08246 2509 ft 135 kts 278°
2026-04-18 13:51 25.48412 52.07561 2510 ft 135 kts 278°
2026-04-18 13:52 25.48452 52.06192 2509 ft 135 kts 279°
2026-04-18 13:52 25.48482 52.05155 2510 ft 134 kts 279°
2026-04-18 13:52 25.48512 52.04119 2502 ft 135 kts 277°
2026-04-18 13:52 25.48533 52.03412 2507 ft 136 kts 278°
2026-04-18 13:53 25.48562 52.02381 2513 ft 136 kts 277°
2026-04-18 13:53 25.48592 52.01333 2511 ft 136 kts 277°
2026-04-18 13:53 25.48623 52.00269 2512 ft 137 kts 277°
2026-04-18 13:53 25.48653 51.99232 2512 ft 137 kts 278°
2026-04-18 13:54 25.48683 51.98180 2510 ft 137 kts 277°
2026-04-18 13:54 25.48713 51.97128 2510 ft 136 kts 277°
2026-04-18 13:54 25.48743 51.96075 2509 ft 138 kts 277°
2026-04-18 13:54 25.48773 51.95021 2506 ft 137 kts 277°
2026-04-18 13:55 25.48803 51.93968 2509 ft 136 kts 277°
2026-04-18 13:55 25.48832 51.92922 2506 ft 136 kts 277°
2026-04-18 13:55 25.48862 51.91872 2508 ft 136 kts 277°
2026-04-18 13:55 25.48891 51.90821 2504 ft 138 kts 277°
2026-04-18 13:56 25.48921 51.89761 2510 ft 137 kts 277°
2026-04-18 13:56 25.48950 51.88706 2511 ft 137 kts 278°
2026-04-18 13:56 25.48980 51.87657 2509 ft 136 kts 278°
2026-04-18 13:56 25.49009 51.86612 2508 ft 136 kts 277°
2026-04-18 13:57 25.49038 51.85559 2509 ft 137 kts 277°
2026-04-18 13:57 25.49067 51.84517 2509 ft 137 kts 277°
2026-04-18 13:57 25.49096 51.83451 2506 ft 137 kts 277°
2026-04-18 13:57 25.49125 51.82415 2504 ft 137 kts 277°
2026-04-18 13:58 25.49154 51.81359 2502 ft 137 kts 277°
2026-04-18 13:58 25.49183 51.80301 2510 ft 137 kts 276°
2026-04-18 13:58 25.49211 51.79249 2513 ft 137 kts 277°
2026-04-18 13:58 25.49240 51.78186 2506 ft 138 kts 276°
2026-04-18 13:59 25.49269 51.77134 2513 ft 135 kts 277°
2026-04-18 13:59 25.49297 51.76083 2502 ft 139 kts 277°
2026-04-18 13:59 25.49326 51.75015 2511 ft 136 kts 277°
2026-04-18 13:59 25.49355 51.73963 2502 ft 137 kts 276°
2026-04-18 14:00 25.49383 51.72903 2512 ft 137 kts 277°
2026-04-18 14:00 25.49411 51.71845 2513 ft 138 kts 277°
2026-04-18 14:00 25.49440 51.70790 2513 ft 139 kts 276°
2026-04-18 14:00 25.49468 51.69717 2514 ft 139 kts 276°
2026-04-18 14:01 25.49496 51.68661 2515 ft 137 kts 276°
2026-04-18 14:01 25.49525 51.67586 2511 ft 139 kts 276°
2026-04-18 14:01 25.49552 51.66536 2515 ft 137 kts 276°
2026-04-18 14:01 25.49581 51.65470 2510 ft 140 kts 276°
2026-04-18 14:02 25.49609 51.64405 2514 ft 137 kts 275°
2026-04-18 14:02 25.49637 51.63329 2511 ft 141 kts 276°
2026-04-18 14:02 25.49665 51.62258 2513 ft 139 kts 276°
2026-04-18 14:02 25.49693 51.61191 2509 ft 138 kts 276°
2026-04-18 14:03 25.49720 51.60133 2511 ft 137 kts 277°
2026-04-18 14:03 25.49666 51.59079 2508 ft 140 kts 262°
2026-04-18 14:03 25.49333 51.58057 2510 ft 143 kts 253°
2026-04-18 14:03 25.48954 51.57054 2507 ft 141 kts 251°
2026-04-18 14:04 25.48573 51.56032 2510 ft 144 kts 252°
2026-04-18 14:04 25.48204 51.55006 2509 ft 144 kts 253°
2026-04-18 14:04 25.47847 51.53972 2511 ft 144 kts 253°
2026-04-18 14:04 25.47492 51.52931 2505 ft 146 kts 254°
2026-04-18 14:05 25.47198 51.52064 2516 ft 144 kts 256°
2026-04-18 14:05 25.46886 51.51101 2528 ft 136 kts 256°
2026-04-18 14:05 25.46435 51.50245 2505 ft 136 kts 232°
2026-04-18 14:05 25.45599 51.49717 2513 ft 140 kts 200°
2026-04-18 14:06 25.44706 51.49569 2513 ft 138 kts 187°
2026-04-18 14:06 25.43737 51.49600 2516 ft 139 kts 178°
2026-04-18 14:06 25.42860 51.49808 2527 ft 118 kts 150°
2026-04-18 14:06 25.42327 51.50511 2428 ft 94 kts 114°
2026-04-18 14:07 25.41896 51.51012 2564 ft 107 kts 175°
2026-04-18 14:07 25.41047 51.50979 2483 ft 135 kts 185°
2026-04-18 14:07 25.40051 51.51011 2348 ft 152 kts 178°
2026-04-18 14:07 25.38975 51.51066 2291 ft 155 kts 183°
2026-04-18 14:08 25.36842 51.51461 2193 ft 158 kts 157°
2026-04-18 14:08 25.35837 51.52032 1916 ft 165 kts 153°
2026-04-18 14:08 25.34835 51.52651 1660 ft 164 kts 149°
2026-04-18 14:09 25.33784 51.53148 1392 ft 166 kts 160°
2026-04-18 14:09 25.32741 51.53598 1212 ft 157 kts 158°
2026-04-18 14:09 25.31739 51.54020 1008 ft 152 kts 157°
2026-04-18 14:09 25.30838 51.54392 986 ft 134 kts 156°
2026-04-18 14:10 25.30022 51.54759 788 ft 119 kts 153°
2026-04-18 14:10 25.29308 51.55088 571 ft 110 kts 153°
2026-04-18 14:10 25.28601 51.55393 337 ft 97 kts 150°
2026-04-18 14:10 25.28001 51.55667 159 ft 90 kts 155°
2026-04-18 14:11 25.27456 51.55912 45 ft 74 kts 154°
2026-04-18 14:11 25.27078 51.56083 24 ft 45 kts 160°
2026-04-18 14:11 25.26856 51.56170 26 ft 17 kts 181°
2026-04-18 14:11 25.26889 51.56162 23 ft 14 kts 339°
2026-04-18 14:12 25.26994 51.56116 25 ft 24 kts 340°
2026-04-18 14:12 25.27186 51.56036 25 ft 28 kts 337°
2026-04-18 14:12 25.27316 51.55976 23 ft 10 kts 341°
2026-04-18 14:12 25.27367 51.55995 23 ft 7 kts 68°
2026-04-18 14:13 25.27386 51.56045 24 ft 8 kts 67°
2026-04-18 14:13 25.27410 51.56112 23 ft 14 kts 66°
2026-04-18 14:13 25.27445 51.56210 25 ft 19 kts 69°
2026-04-18 14:13 25.27461 51.56255 19 ft 15 kts 68°
2026-04-18 14:14 25.27479 51.56298 27 ft 4 kts 30°
2026-04-18 14:14 25.27488 51.56299 27 ft 0 kts 344°